FW8987 Weather Reports


time (UTC)temp
C
wind
direction
speed
KPH
gust
KPH
rain 1hr
cm
rain 24hr
cm
rain mn
cm
humidity
%
barometer
mb
20260831052517 12 0.0 0.0 0.03 0.25 0.13 99 1002.7
20260831051532 12 0.0 0.0 0.03 0.25 0.13 99 1002.8
20260831050528 12 0.0 0.0 0.03 0.25 0.13 99 1002.8
20260831045524 12 0.0 0.0 0.03 0.25 0.13 99 1002.8
20260831044519 12 192 0.0 1.6 0.05 0.25 0.13 99 1002.7
20260831043534 12 0.0 0.0 0.05 0.25 0.13 99 1002.7
20260831042530 12 0.0 0.0 0.03 0.23 0.10 99 1002.6
20260831041525 12 0.0 0.0 0.05 0.23 0.10 99 1002.7
20260831040522 12 215 1.6 3.2 0.05 0.23 0.10 99 1002.6
20260831035516 12 0.0 0.0 0.08 0.23 0.10 99 1002.5
20260831034532 12 0.0 0.0 0.05 0.20 0.08 99 1002.6
20260831033526 12 0.0 0.0 0.08 0.20 0.08 99 1002.5
20260831032522 12 0.0 0.0 0.08 0.20 0.08 99 1002.5
20260831031538 12 0.0 0.0 0.05 0.18 0.05 99 1002.5
20260831030533 12 0.0 0.0 0.05 0.18 0.05 99 1002.6
20260831025529 12 0.0 0.0 0.03 0.18 0.03 99 1002.8
20260831024524 12 0.0 0.0 0.03 0.18 0.03 99 1002.6
20260831023519 12 0.0 0.0 0.00 0.18 0.00 99 1002.7
20260831022535 12 0.0 0.0 0.00 0.18 0.00 99 1002.7
20260831021530 12 0.0 0.0 0.00 0.18 0.00 99 1002.9
20260831020525 12 0.0 0.0 0.00 0.18 0.00 99 1002.9
20260831015540 12 0.0 0.0 0.00 0.18 0.00 99 1002.9
20260831014516 12 0.0 0.0 0.00 0.20 0.00 99 1002.8
20260831013532 12 0.0 0.0 0.00 0.20 0.00 99 1002.8
20260831012528 12 0.0 0.0 0.00 0.20 0.00 99 1002.8
20260831011521 12 0.0 0.0 0.00 0.20 0.00 99 1002.8
20260831010518 12 0.0 0.0 0.00 0.20 0.00 99 1002.9
20260831005533 12 0.0 0.0 0.00 0.20 0.00 99 1002.9
20260831004528 12 0.0 0.0 0.00 0.23 0.00 99 1002.8
20260831003524 12 0.0 0.0 0.00 0.23 0.00 99 1002.9
20260831002519 12 0.0 0.0 0.00 0.23 0.00 99 1002.8
20260831001534 12 0.0 0.0 0.00 0.23 0.00 99 1002.8
20260831000530 12 0.0 0.0 0.00 0.23 0.00 99 1002.9
20260830235524 11 0.0 0.0 0.00 0.23 0.00 99 1002.9
20260830234520 11 0.0 0.0 0.00 0.23 0.00 99 1003.0
20260830233535 12 0.0 0.0 0.00 0.23 0.00 99 1002.8
20260830232531 12 0.0 0.0 0.00 0.23 0.00 99 1002.8
20260830231525 12 0.0 0.0 0.00 0.23 0.00 99 1002.8
20260830230521 12 0.0 0.0 0.00 0.23 0.00 99 1002.8
20260830225517 13 0.0 0.0 0.00 0.23 0.00 99 1002.8
20260830224532 13 0.0 0.0 0.00 0.23 0.00 99 1002.8
20260830223528 13 0.0 0.0 0.00 0.23 0.00 99 1002.8
20260830222523 13 0.0 0.0 0.00 0.23 0.00 99 1002.8
20260830221517 13 0.0 0.0 0.00 0.23 0.00 99 1002.9
20260830220532 13 0.0 0.0 0.00 0.23 0.00 99 1002.8
20260830215528 13 0.0 0.0 0.00 0.23 0.23 99 1002.8
20260830214523 13 0.0 0.0 0.00 0.23 0.23 99 1002.8
20260830213539 13 0.0 0.0 0.00 0.23 0.23 99 1002.8
20260830212535 13 0.0 0.0 0.00 0.23 0.23 99 1002.8
20260830211531 13 0.0 0.0 0.00 0.23 0.23 99 1002.9
20260830210525 13 170 0.0 1.6 0.00 0.23 0.23 99 1002.7
20260830205520 14 0.0 0.0 0.00 0.23 0.23 99 1002.9
20260830204516 14 0.0 0.0 0.00 0.23 0.23 99 1002.9
20260830203531 14 0.0 0.0 0.00 0.23 0.23 99 1002.8
20260830202527 15 0.0 0.0 0.00 0.23 0.23 99 1003.0
20260830201522 15 192 0.0 1.6 0.00 0.23 0.23 99 1002.9
20260830200517 15 191 0.0 1.6 0.00 0.23 0.23 98 1002.9
20260830195533 15 160 0.0 1.6 0.00 0.23 0.23 98 1002.9
20260830194528 15 194 0.0 1.6 0.00 0.23 0.23 98 1002.9
20260830193524 15 194 0.0 1.6 0.00 0.23 0.23 98 1002.8
20260830192519 15 0.0 0.0 0.00 0.23 0.23 98 1002.9
20260830191554 15 0.0 0.0 0.00 0.23 0.23 97 1002.9
20260830190551 15 0.0 0.0 0.00 0.23 0.23 97 1003.0
20260830185525 15 175 0.0 1.6 0.00 0.23 0.23 97 1003.0
20260830184601 15 0.0 0.0 0.00 0.23 0.23 96 1003.0
20260830183516 16 181 0.0 1.6 0.00 0.23 0.23 96 1002.9
20260830182551 15 177 0.0 1.6 0.00 0.23 0.23 97 1002.9
20260830181547 16 0.0 0.0 0.00 0.23 0.23 98 1002.9
20260830180522 16 0.0 0.0 0.00 0.23 0.23 97 1002.8
20260830175516 16 0.0 0.0 0.00 0.23 0.23 96 1003.0
20260830174532 16 0.0 0.0 0.00 0.23 0.23 95 1003.0
20260830173527 17 0.0 0.0 0.00 0.23 0.23 93 1002.9
20260830172522 17 0.0 0.0 0.00 0.23 0.23 92 1002.8
20260830171518 17 0.0 0.0 0.00 0.23 0.23 91 1002.9
20260830170534 17 0.0 0.0 0.00 0.23 0.23 90 1002.8
20260830165609 17 0.0 0.0 0.00 0.23 0.23 89 1002.6
20260830164523 17 0.0 0.0 0.00 0.23 0.23 87 1002.8
20260830163539 17 0.0 0.0 0.00 0.23 0.23 86 1002.8
20260830162539 18 0.0 0.0 0.00 0.23 0.23 86 1002.9
20260830161529 18 178 0.0 1.6 0.00 0.23 0.23 86 1002.8
20260830160524 17 0.0 0.0 0.00 0.23 0.23 86 1003.0
20260830155540 17 213 1.6 4.8 0.00 0.23 0.23 86 1003.0
20260830154535 18 193 0.0 1.6 0.00 0.23 0.23 84 1002.9
20260830153530 18 195 0.0 3.2 0.00 0.23 0.23 84 1002.9
20260830152526 18 193 0.0 3.2 0.00 0.23 0.23 81 1003.0
20260830151541 18 209 1.6 4.8 0.00 0.23 0.23 80 1003.0
20260830150516 18 170 1.6 4.8 0.00 0.23 0.23 81 1003.0
20260830145551 18 182 0.0 3.2 0.00 0.23 0.23 81 1003.0
20260830144527 18 194 1.6 4.8 0.00 0.23 0.23 80 1002.9
20260830143524 18 197 3.2 6.4 0.00 0.23 0.23 80 1002.9
20260830142518 18 201 3.2 6.4 0.00 0.23 0.23 80 1003.0
20260830141534 18 203 3.2 6.4 0.00 0.23 0.23 80 1003.0
20260830140530 18 207 3.2 11.3 0.00 0.23 0.23 81 1003.0
20260830135525 18 190 1.6 4.8 0.00 0.23 0.23 85 1003.0
20260830134520 18 230 3.2 4.8 0.00 0.23 0.23 81 1002.9
20260830133515 18 217 3.2 6.4 0.00 0.23 0.23 82 1002.9
20260830132531 18 200 3.2 12.9 0.00 0.23 0.23 81 1002.9
20260830131530 18 198 3.2 6.4 0.00 0.23 0.23 84 1002.9
20260830130521 18 196 3.2 11.3 0.00 0.23 0.23 84 1003.0
20260830125517 19 195 4.8 11.3 0.00 0.23 0.23 82 1002.7
20260830124612 18 228 4.8 12.9 0.00 0.23 0.23 85 1002.8
20260830123527 17 212 3.2 11.3 0.00 0.23 0.23 88 1003.0
20260830122524 17 224 4.8 12.9 0.03 0.23 0.23 90 1003.0
20260830121518 17 216 4.8 9.7 0.05 0.23 0.23 90 1003.0
20260830120533 18 227 4.8 16.1 0.08 0.23 0.23 90 1003.0
20260830115528 17 188 3.2 16.1 0.13 0.23 0.23 93 1003.0
20260830114524 16 176 1.6 4.8 0.13 0.25 0.23 96 1003.1
20260830113521 15 181 1.6 4.8 0.13 0.25 0.23 98 1003.4
20260830112535 15 181 1.6 11.3 0.10 0.23 0.20 98 1003.3
20260830111531 15 183 1.6 3.2 0.08 0.20 0.18 98 1003.5
20260830110525 15 208 3.2 9.7 0.05 0.20 0.15 97 1003.5
20260830105521 16 196 3.2 6.4 0.00 0.15 0.10 93 1003.4
20260830104515 18 241 8.0 20.9 0.00 0.18 0.10 83 1003.0
20260830103532 18 240 6.4 20.9 0.00 0.20 0.10 79 1002.9
20260830102526 18 233 3.2 12.9 0.00 0.20 0.10 80 1002.9
20260830101522 18 223 4.8 12.9 0.00 0.20 0.10 80 1003.0
20260830100538 18 219 4.8 11.3 0.00 0.23 0.10 80 1002.9
20260830095554 19 216 3.2 4.8 0.00 0.23 0.10 80 1002.8
20260830094529 18 205 3.2 6.4 0.00 0.23 0.10 82 1002.8
20260830093524 18 217 3.2 12.9 0.00 0.23 0.10 81 1002.7
20260830092520 18 219 3.2 14.5 0.00 0.23 0.10 82 1002.8
20260830091535 18 220 4.8 14.5 0.00 0.23 0.10 83 1002.7
20260830090530 17 232 4.8 12.9 0.00 0.23 0.10 86 1002.8
20260830085526 17 216 3.2 9.7 0.00 0.23 0.10 87 1002.8
20260830084521 17 217 4.8 12.9 0.00 0.23 0.10 86 1002.7
20260830083517 17 189 3.2 6.4 0.00 0.23 0.10 87 1002.7
20260830082533 17 214 3.2 6.4 0.00 0.23 0.10 88 1002.7
20260830081528 17 206 3.2 6.4 0.00 0.23 0.10 90 1002.7
20260830080523 16 210 1.6 9.7 0.00 0.23 0.10 91 1002.8
20260830075518 16 192 1.6 4.8 0.00 0.23 0.10 92 1002.9
20260830074533 16 200 1.6 3.2 0.00 0.23 0.10 92 1002.8
20260830073528 16 211 3.2 9.7 0.00 0.23 0.10 93 1002.9
20260830072543 16 211 3.2 9.7 0.00 0.23 0.10 92 1002.8
20260830071519 16 198 3.2 12.9 0.00 0.23 0.10 91 1002.6
20260830070534 16 194 3.2 9.7 0.00 0.23 0.10 92 1002.7
20260830065529 16 213 3.2 9.7 0.00 0.23 0.10 92 1002.6
20260830064545 16 209 3.2 9.7 0.00 0.25 0.10 91 1002.4
20260830063520 16 195 1.6 4.8 0.00 0.25 0.10 94 1002.4
20260830062515 15 209 3.2 11.3 0.00 0.25 0.10 96 1002.5
20260830061550 15 216 3.2 9.7 0.00 0.25 0.10 99 1002.5
20260830060527 15 216 1.6 6.4 0.00 0.25 0.10 99 1002.4
20260830055521 15 186 0.0 3.2 0.00 0.25 0.10 99 1002.3
20260830054516 15 162 1.6 6.4 0.00 0.28 0.10 99 1002.4
20260830053552 15 194 1.6 3.2 0.00 0.28 0.10 99 1002.4